Miles City, MT

1:23 AM MDT on August 30, 2016 (GMT -0600)
Wiley

Weather History for KMLS - October, 2014

Change the Weather History Date:

Thursday, October 9, 2014

  Actual Average Record
Temperature  
Mean Temperature 50 °F 49 °F  
Max Temperature 63 °F 62 °F 90 °F (1955)
Min Temperature 37 °F 36 °F 20 °F (1985)
Degree Days  
Heating Degree Days 15 16  
Month to date heating degree days 119 127  
Since 1 July heating degree days 345 363  
Cooling Degree Days 0 0  
Month to date cooling degree days 0 0  
Year to date cooling degree days 648 728  
Moisture  
Dew Point 35 °F    
Average Humidity 61    
Maximum Humidity 85    
Minimum Humidity 36    
Precipitation  
Precipitation 0.00 in 0.03 in 0.52 in (2005)
Month to date precipitation 0.03 0.32  
Year to date precipitation 12.31 11.16  
Sea Level Pressure  
Sea Level Pressure 30.18 in    
Wind  
Wind Speed 9 mph (ENE)    
Max Wind Speed 14 mph    
Max Gust Speed 19 mph    
Visibility 10 miles    
Events      
T = Trace of Precipitation, MM = Missing Value Source: NWS Daily Summary

Daily Weather History Graph

Daily Weather History Graph

Search for Another Location

Airport or City:

Trip Planner

Search our weather history database for the weather conditions in past years. The results will help you decide how hot, cold, wet, or windy it might be!

Date:

Astronomy

Oct. 09, 2014 Rise Set
Actual Time 7:12 AM MDT 6:27 PM MDT
Civil Twilight 6:42 AM MDT 6:58 PM MDT
Nautical Twilight 6:07 AM MDT 7:32 PM MDT
Astronomical Twilight 5:32 AM MDT 8:07 PM MDT
Moon 7:20 PM MDT (10/9) 8:35 AM MDT (10/9)
Length of Visible Light 12h 15m
Length of Day
11h 15m
Full, 98% of the Moon is Illuminated
Oct 9
Full
Oct 15
Last Quarter
Oct 23
New
Oct 30
First Quarter
Nov 6
Full

Hourly Weather History & Observations

Time (MDT) Temp. Windchill Dew Point Humidity Pressure Visibility Wind Dir Wind Speed Gust Speed Precip Events Conditions
12:53 AM 42.1 °F 35.7 °F 36.0 °F 79% 30.07 in 10.0 mi NE 11.5 mph - N/A   Clear
1:53 AM 41.0 °F 33.9 °F 35.1 °F 79% 30.09 in 10.0 mi NNE 12.7 mph - N/A   Clear
2:53 AM 39.9 °F 33.4 °F 35.1 °F 83% 30.09 in 10.0 mi NE 10.4 mph - N/A   Clear
3:53 AM 39.0 °F 31.8 °F 34.0 °F 82% 30.09 in 10.0 mi NNE 11.5 mph - N/A   Clear
4:53 AM 39.0 °F 31.8 °F 33.1 °F 79% 30.12 in 10.0 mi NNE 11.5 mph - N/A   Clear
5:53 AM 39.0 °F 32.8 °F 33.1 °F 79% 30.14 in 10.0 mi NNE 9.2 mph - N/A   Clear
6:53 AM 37.9 °F 30.5 °F 33.1 °F 83% 30.17 in 10.0 mi NNE 11.5 mph - N/A   Clear
7:53 AM 37.9 °F 30.5 °F 32.0 °F 79% 30.19 in 10.0 mi NNE 11.5 mph - N/A   Clear
8:53 AM 39.9 °F 33.4 °F 33.1 °F 77% 30.21 in 10.0 mi NE 10.4 mph - N/A   Clear
9:53 AM 43.0 °F 37.7 °F 34.0 °F 71% 30.22 in 10.0 mi NNE 9.2 mph - N/A   Clear
10:53 AM 48.9 °F - 36.0 °F 61% 30.23 in 10.0 mi Variable 3.5 mph - N/A   Clear
11:53 AM 52.0 °F - 37.0 °F 57% 30.23 in 10.0 mi Variable 5.8 mph - N/A   Clear
12:53 PM 57.0 °F - 37.0 °F 47% 30.21 in 10.0 mi Variable 5.8 mph - N/A   Clear
1:53 PM 61.0 °F - 36.0 °F 39% 30.19 in 10.0 mi ENE 11.5 mph - N/A   Clear
2:53 PM 62.1 °F - 35.1 °F 37% 30.18 in 10.0 mi ESE 9.2 mph 18.4 mph N/A   Clear
3:53 PM 63.0 °F - 35.1 °F 35% 30.18 in 10.0 mi East 11.5 mph - N/A   Clear
4:53 PM 62.1 °F - 35.1 °F 37% 30.17 in 10.0 mi East 12.7 mph - N/A   Clear
5:53 PM 59.0 °F - 35.1 °F 41% 30.19 in 10.0 mi East 11.5 mph - N/A   Clear
6:53 PM 55.0 °F - 35.1 °F 47% 30.21 in 10.0 mi East 9.2 mph - N/A   Clear
7:53 PM 53.1 °F - 35.1 °F 50% 30.22 in 10.0 mi ESE 6.9 mph - N/A   Clear
8:53 PM 50.0 °F - 35.1 °F 57% 30.23 in 10.0 mi East 5.8 mph - N/A   Clear
9:53 PM 48.9 °F - 34.0 °F 56% 30.24 in 10.0 mi SSE 5.8 mph - N/A   Clear
10:53 PM 46.9 °F - 34.0 °F 61% 30.23 in 10.0 mi ESE 4.6 mph - N/A   Clear
11:53 PM 44.1 °F - 32.0 °F 63% 30.23 in 10.0 mi Calm Calm - N/A   Clear